Location: Redwood City
(37.4850°N, 122.2350°W)
Time: 09:25:51
(UTC-07:00)

ISS - Visible Passes

Search period start: 28 July 2014 00:00
Search period end: 07 August 2014 00:00
Orbit: 411 x 420 km, 51.6° (Epoch: 28 July)

Date Brightness Start Highest point End Pass type
(mag) Time Alt. Az. Time Alt. Az. Time Alt. Az.
29 Jul -0.4 05:29:56 10° NNW 05:32:28 20° NNE 05:35:01 10° ENE visible
30 Jul -0.1 04:41:32 10° NNW 04:43:27 14° NNE 04:45:21 10° ENE visible
31 Jul 0.2 03:53:23 10° N 03:54:21 11° NNE 03:55:19 10° NNE visible
31 Jul -1.9 05:28:33 10° NW 05:31:47 43° NE 05:35:00 10° ESE visible
01 Aug -0.9 04:39:56 10° NNW 04:42:51 27° NNE 04:45:46 10° E visible
01 Aug -2.0 21:21:16 10° S 21:23:31 21° SE 21:23:31 21° SE visible
02 Aug -0.3 03:51:25 10° NNW 03:53:51 18° NNE 03:56:17 10° ENE visible
02 Aug -3.3 05:27:31 10° NW 05:30:50 62° SW 05:34:09 10° SE visible
02 Aug -2.9 22:08:14 10° WSW 22:11:32 62° NW 22:14:22 13° NE visible
02 Aug 0.2 23:47:12 10° NW 23:47:30 11° NW 23:47:30 11° NW visible
03 Aug 0.1 03:03:02 10° N 03:04:48 13° NNE 03:06:33 10° NE visible
03 Aug -3.0 04:38:40 10° NW 04:42:01 69° NE 04:45:22 10° ESE visible
03 Aug -3.4 21:19:25 10° SW 21:22:42 69° SE 21:26:02 10° NE visible
03 Aug -0.3 22:57:25 10° WNW 22:59:43 17° NNW 23:02:02 10° NNE visible
04 Aug -1.8 03:52:31 35° N 03:53:09 38° NE 03:56:19 10° ESE visible
04 Aug -1.9 05:27:09 10° W 05:29:40 20° SW 05:32:09 10° S visible
04 Aug -0.9 22:07:54 10° W 22:10:42 25° NNW 22:13:32 10° NNE visible
05 Aug -0.9 04:43:37 13° SSE 04:43:37 13° SSE 04:44:04 10° SSE visible
05 Aug -1.8 21:18:36 10° WSW 21:21:45 39° NW 21:24:55 10° NE visible
05 Aug 0.2 22:58:35 10° NNW 22:59:13 10° NNW 22:59:51 10° N visible
06 Aug -0.1 22:08:20 10° NW 22:10:05 13° NNW 22:11:50 10° N visible
